COSMOS 926

导读 | 豆包AI

COSMOS 926(宇宙926)是苏联(CIS)于1977年7月8日发射的无人卫星,隶属于苏联"宇宙"(COSMOS)卫星系列。该系列卫星用途广泛,涵盖科学研究、航天技术试验与军事侦察等领域,冷战时期支撑苏联太空技术与情报能力建设。作为系列的一员,它承载了特定航天任务,延续了该系列多样的空间探索与应用目标,是苏联航天活动的组成部分,反映了当时太空竞争背景下的航天发展水平。

基本信息
目录编号:
10137
目录名称:
COSMOS 926
国际标识:
1977-062A
轨道中心:
EARTH
卫星名称:
COSMOS 926
卫星全名:
--
卫星状态:
在轨 (已飞行17771 天)
发射日期:
1977-07-08 UTC
国别 :
俄罗斯(独联体) (CIS)
星等 :
--
轨道信息
数据来源 国际轨道数据 AOE轨道数据
星历时间 2026-03-04T20:33:03+0800
3小时前
查看轨道信息
2026-02-27T16:00:00+0800
5天前
查看轨道信息
半长轴 7368.521km 7368.522km
偏心率 0.003117 0.003166
轨道倾角 82.937° 82.942°
近地点辐角 301.079° 316.442°
升交点赤经 84.912° 88.744°
平近点角 169.341° 85.310°
近地点 967.416km 967.056km
远地点 1013.352km 1013.714km
周期 104.913分钟 104.913分钟
每日圈数 13.72563 13.725629
详细信息
使用方式:
暂无
2D轨道图
3D轨道图
轨道高度分析图
轨道倾角分析图
轨道综合分析图
查看轨道综合分析图